Date_Time,Julian_Date,Latitude,Longitude,Instrument_Depth,U,V,Speed,Direction
(yyyy-mm-dd hh:mn:ss UTC),(JD),(+ deg. North),(+ deg. East),(m),(cm/s),(cm/s),(cm/s),(deg True)
1984-01-07 18:00:00 UTC,2445707.250000,29.6650,-93.4789,0037,4.37,-2.42,5.0000,119.0000
1984-01-07 18:30:00 UTC,2445707.270833,29.6650,-93.4789,0037,2.40,-1.81,3.0000,127.0000
1984-01-07 19:00:00 UTC,2445707.291667,29.6650,-93.4789,0037,0.81,-0.59,1.0000,126.0000
1984-01-07 19:30:00 UTC,2445707.312500,29.6650,-93.4789,0037,0.00,0.00,0.0000,48.0000
1984-01-07 20:00:00 UTC,2445707.333333,29.6650,-93.4789,0037,-0.00,0.00,0.0000,282.0000
1984-01-07 20:30:00 UTC,2445707.354167,29.6650,-93.4789,0037,-0.98,0.21,1.0000,282.0000
1984-01-07 21:00:00 UTC,2445707.375000,29.6650,-93.4789,0037,-1.95,0.45,2.0000,283.0000
1984-01-07 21:30:00 UTC,2445707.395833,29.6650,-93.4789,0037,-1.99,0.24,2.0000,277.0000
1984-01-07 22:00:00 UTC,2445707.416667,29.6650,-93.4789,0037,-3.99,-0.21,4.0000,267.0000
1984-01-07 22:30:00 UTC,2445707.437500,29.6650,-93.4789,0037,-5.94,-0.84,6.0000,262.0000
1984-01-07 23:00:00 UTC,2445707.458333,29.6650,-93.4789,0037,-7.97,-0.70,8.0000,265.0000
1984-01-07 23:30:00 UTC,2445707.479167,29.6650,-93.4789,0037,-7.00,-0.00,7.0000,270.0000
1984-01-08 00:00:00 UTC,2445707.500000,29.6650,-93.4789,0037,-5.99,0.42,6.0000,274.0000
1984-01-08 00:30:00 UTC,2445707.520833,29.6650,-93.4789,0037,-3.95,0.63,4.0000,279.0000
1984-01-08 01:00:00 UTC,2445707.541667,29.6650,-93.4789,0037,-2.00,0.14,2.0000,274.0000
1984-01-08 01:30:00 UTC,2445707.562500,29.6650,-93.4789,0037,-1.81,-0.85,2.0000,245.0000
1984-01-08 02:00:00 UTC,2445707.583333,29.6650,-93.4789,0037,-0.78,-0.63,1.0000,231.0000
1984-01-08 02:30:00 UTC,2445707.604167,29.6650,-93.4789,0037,0.79,0.62,1.0000,52.0000
1984-01-08 03:00:00 UTC,2445707.625000,29.6650,-93.4789,0037,1.70,1.06,2.0000,58.0000
1984-01-08 03:30:00 UTC,2445707.645833,29.6650,-93.4789,0037,2.43,1.76,3.0000,54.0000
1984-01-08 04:00:00 UTC,2445707.666667,29.6650,-93.4789,0037,3.11,2.52,4.0000,51.0000
1984-01-08 04:30:00 UTC,2445707.687500,29.6650,-93.4789,0037,2.88,2.78,4.0000,46.0000
1984-01-08 05:00:00 UTC,2445707.708333,29.6650,-93.4789,0037,3.78,4.66,6.0000,39.0000
1984-01-08 05:30:00 UTC,2445707.729167,29.6650,-93.4789,0037,4.59,5.28,7.0000,41.0000
1984-01-08 06:00:00 UTC,2445707.750000,29.6650,-93.4789,0037,5.28,4.59,7.0000,49.0000
1984-01-08 06:30:00 UTC,2445707.770833,29.6650,-93.4789,0037,5.95,5.35,8.0000,48.0000
1984-01-08 07:00:00 UTC,2445707.791667,29.6650,-93.4789,0037,6.25,6.47,9.0000,44.0000
1984-01-08 07:30:00 UTC,2445707.812500,29.6650,-93.4789,0037,7.66,6.43,10.0000,50.0000
1984-01-08 08:00:00 UTC,2445707.833333,29.6650,-93.4789,0037,8.19,5.74,10.0000,55.0000
1984-01-08 08:30:00 UTC,2445707.854167,29.6650,-93.4789,0037,8.09,5.88,10.0000,54.0000
1984-01-08 09:00:00 UTC,2445707.875000,29.6650,-93.4789,0037,8.09,5.88,10.0000,54.0000
1984-01-08 09:30:00 UTC,2445707.895833,29.6650,-93.4789,0037,8.19,5.74,10.0000,55.0000
1984-01-08 10:00:00 UTC,2445707.916667,29.6650,-93.4789,0037,8.90,6.47,11.0000,54.0000
1984-01-08 10:30:00 UTC,2445707.937500,29.6650,-93.4789,0037,10.65,7.46,13.0000,55.0000
1984-01-08 11:00:00 UTC,2445707.958333,29.6650,-93.4789,0037,13.99,7.76,16.0000,61.0000
1984-01-08 11:30:00 UTC,2445707.979167,29.6650,-93.4789,0037,14.83,5.99,16.0000,68.0000
1984-01-08 12:00:00 UTC,2445708.000000,29.6650,-93.4789,0037,12.50,3.58,13.0000,74.0000
1984-01-08 12:30:00 UTC,2445708.020833,29.6650,-93.4789,0037,9.78,2.08,10.0000,78.0000
1984-01-08 13:00:00 UTC,2445708.041667,29.6650,-93.4789,0037,9.90,1.39,10.0000,82.0000
1984-01-08 13:30:00 UTC,2445708.062500,29.6650,-93.4789,0037,11.00,0.00,11.0000,90.0000
1984-01-08 14:00:00 UTC,2445708.083333,29.6650,-93.4789,0037,10.89,-1.53,11.0000,98.0000
1984-01-08 14:30:00 UTC,2445708.104167,29.6650,-93.4789,0037,10.94,-1.15,11.0000,96.0000
1984-01-08 15:00:00 UTC,2445708.125000,29.6650,-93.4789,0037,13.00,0.00,13.0000,90.0000
1984-01-08 15:30:00 UTC,2445708.145833,29.6650,-93.4789,0037,14.98,-0.79,15.0000,93.0000
1984-01-08 16:00:00 UTC,2445708.166667,29.6650,-93.4789,0037,14.77,-2.60,15.0000,100.0000
1984-01-08 16:30:00 UTC,2445708.187500,29.6650,-93.4789,0037,13.86,-1.95,14.0000,98.0000
1984-01-08 17:00:00 UTC,2445708.208333,29.6650,-93.4789,0037,11.98,-0.63,12.0000,93.0000
1984-01-08 17:30:00 UTC,2445708.229167,29.6650,-93.4789,0037,10.86,-1.72,11.0000,99.0000
1984-01-08 18:00:00 UTC,2445708.250000,29.6650,-93.4789,0037,10.76,-2.29,11.0000,102.0000
1984-01-08 18:30:00 UTC,2445708.270833,29.6650,-93.4789,0037,10.76,-2.29,11.0000,102.0000
1984-01-08 19:00:00 UTC,2445708.291667,29.6650,-93.4789,0037,12.69,-5.92,14.0000,115.0000
1984-01-08 19:30:00 UTC,2445708.312500,29.6650,-93.4789,0037,12.14,-8.82,15.0000,126.0000
1984-01-08 20:00:00 UTC,2445708.333333,29.6650,-93.4789,0037,10.07,-9.73,14.0000,134.0000
1984-01-08 20:30:00 UTC,2445708.354167,29.6650,-93.4789,0037,7.46,-10.65,13.0000,145.0000
1984-01-08 21:00:00 UTC,2445708.375000,29.6650,-93.4789,0037,5.02,-13.07,14.0000,159.0000
1984-01-08 21:30:00 UTC,2445708.395833,29.6650,-93.4789,0037,1.81,-12.87,13.0000,172.0000
1984-01-08 22:00:00 UTC,2445708.416667,29.6650,-93.4789,0037,-2.49,-11.74,12.0000,192.0000
1984-01-08 22:30:00 UTC,2445708.437500,29.6650,-93.4789,0037,-5.83,-9.33,11.0000,212.0000
1984-01-08 23:00:00 UTC,2445708.458333,29.6650,-93.4789,0037,-7.22,-8.30,11.0000,221.0000
1984-01-08 23:30:00 UTC,2445708.479167,29.6650,-93.4789,0037,-7.22,-8.30,11.0000,221.0000
1984-01-09 00:00:00 UTC,2445708.500000,29.6650,-93.4789,0037,-5.66,-6.99,9.0000,219.0000
1984-01-09 00:30:00 UTC,2445708.520833,29.6650,-93.4789,0037,-4.00,-6.93,8.0000,210.0000
1984-01-09 01:00:00 UTC,2445708.541667,29.6650,-93.4789,0037,-2.34,-7.65,8.0000,197.0000
1984-01-09 01:30:00 UTC,2445708.562500,29.6650,-93.4789,0037,-1.11,-7.92,8.0000,188.0000
1984-01-09 02:00:00 UTC,2445708.583333,29.6650,-93.4789,0037,-0.12,-7.00,7.0000,181.0000
1984-01-09 02:30:00 UTC,2445708.604167,29.6650,-93.4789,0037,-0.42,-7.99,8.0000,183.0000
1984-01-09 03:00:00 UTC,2445708.625000,29.6650,-93.4789,0037,-1.87,-8.80,9.0000,192.0000
1984-01-09 03:30:00 UTC,2445708.645833,29.6650,-93.4789,0037,-3.80,-8.16,9.0000,205.0000
1984-01-09 04:00:00 UTC,2445708.666667,29.6650,-93.4789,0037,-4.90,-7.55,9.0000,213.0000
1984-01-09 04:30:00 UTC,2445708.687500,29.6650,-93.4789,0037,-5.29,-7.28,9.0000,216.0000
1984-01-09 05:00:00 UTC,2445708.708333,29.6650,-93.4789,0037,-3.39,-6.12,7.0000,209.0000
1984-01-09 05:30:00 UTC,2445708.729167,29.6650,-93.4789,0037,-1.25,-5.87,6.0000,192.0000
1984-01-09 06:00:00 UTC,2445708.750000,29.6650,-93.4789,0037,0.12,-7.00,7.0000,179.0000
1984-01-09 06:30:00 UTC,2445708.770833,29.6650,-93.4789,0037,0.61,-6.97,7.0000,175.0000
1984-01-09 07:00:00 UTC,2445708.791667,29.6650,-93.4789,0037,-0.17,-5.00,5.0000,182.0000
1984-01-09 07:30:00 UTC,2445708.812500,29.6650,-93.4789,0037,-2.00,-3.46,4.0000,210.0000
1984-01-09 08:00:00 UTC,2445708.833333,29.6650,-93.4789,0037,-3.60,-1.75,4.0000,244.0000
1984-01-09 08:30:00 UTC,2445708.854167,29.6650,-93.4789,0037,-5.87,1.25,6.0000,282.0000
1984-01-09 09:00:00 UTC,2445708.875000,29.6650,-93.4789,0037,-7.13,3.63,8.0000,297.0000
1984-01-09 09:30:00 UTC,2445708.895833,29.6650,-93.4789,0037,-9.71,5.16,11.0000,298.0000
1984-01-09 10:00:00 UTC,2445708.916667,29.6650,-93.4789,0037,-12.58,6.14,14.0000,296.0000
1984-01-09 10:30:00 UTC,2445708.937500,29.6650,-93.4789,0037,-16.44,7.32,18.0000,294.0000
1984-01-09 11:00:00 UTC,2445708.958333,29.6650,-93.4789,0037,-20.40,8.24,22.0000,292.0000
1984-01-09 11:30:00 UTC,2445708.979167,29.6650,-93.4789,0037,-22.83,7.42,24.0000,288.0000
1984-01-09 12:00:00 UTC,2445709.000000,29.6650,-93.4789,0037,-25.95,7.44,27.0000,286.0000
1984-01-09 12:30:00 UTC,2445709.020833,29.6650,-93.4789,0037,-29.13,10.60,31.0000,290.0000
1984-01-09 13:00:00 UTC,2445709.041667,29.6650,-93.4789,0037,-30.38,12.89,33.0000,293.0000
1984-01-09 13:30:00 UTC,2445709.062500,29.6650,-93.4789,0037,-30.38,12.89,33.0000,293.0000
1984-01-09 14:00:00 UTC,2445709.083333,29.6650,-93.4789,0037,-29.67,11.99,32.0000,292.0000
1984-01-09 14:30:00 UTC,2445709.104167,29.6650,-93.4789,0037,-28.10,13.10,31.0000,295.0000
1984-01-09 15:00:00 UTC,2445709.125000,29.6650,-93.4789,0037,-28.32,12.61,31.0000,294.0000
1984-01-09 15:30:00 UTC,2445709.145833,29.6650,-93.4789,0037,-30.07,10.94,32.0000,290.0000
1984-01-09 16:00:00 UTC,2445709.166667,29.6650,-93.4789,0037,-30.60,9.36,32.0000,287.0000
1984-01-09 16:30:00 UTC,2445709.187500,29.6650,-93.4789,0037,-33.48,5.90,34.0000,280.0000
1984-01-09 17:00:00 UTC,2445709.208333,29.6650,-93.4789,0037,-39.78,4.18,40.0000,276.0000
1984-01-09 17:30:00 UTC,2445709.229167,29.6650,-93.4789,0037,-43.33,7.64,44.0000,280.0000
1984-01-09 18:00:00 UTC,2445709.250000,29.6650,-93.4789,0037,-38.81,9.68,40.0000,284.0000
1984-01-09 18:30:00 UTC,2445709.270833,29.6650,-93.4789,0037,-34.43,10.53,36.0000,287.0000
1984-01-09 19:00:00 UTC,2445709.291667,29.6650,-93.4789,0037,-31.79,16.90,36.0000,298.0000
1984-01-09 19:30:00 UTC,2445709.312500,29.6650,-93.4789,0037,-27.58,23.14,36.0000,310.0000
1984-01-09 20:00:00 UTC,2445709.333333,29.6650,-93.4789,0037,-23.04,20.74,31.0000,312.0000
1984-01-09 20:30:00 UTC,2445709.354167,29.6650,-93.4789,0037,-26.24,14.54,30.0000,299.0000
1984-01-09 21:00:00 UTC,2445709.375000,29.6650,-93.4789,0037,-32.99,8.23,34.0000,284.0000
1984-01-09 21:30:00 UTC,2445709.395833,29.6650,-93.4789,0037,-36.19,7.69,37.0000,282.0000
1984-01-09 22:00:00 UTC,2445709.416667,29.6650,-93.4789,0037,-37.84,9.43,39.0000,284.0000
1984-01-09 22:30:00 UTC,2445709.437500,29.6650,-93.4789,0037,-41.08,8.73,42.0000,282.0000
1984-01-09 23:00:00 UTC,2445709.458333,29.6650,-93.4789,0037,-44.17,8.59,45.0000,281.0000
1984-01-09 23:30:00 UTC,2445709.479167,29.6650,-93.4789,0037,-41.90,9.67,43.0000,283.0000
1984-01-10 00:00:00 UTC,2445709.500000,29.6650,-93.4789,0037,-37.30,11.40,39.0000,287.0000
1984-01-10 00:30:00 UTC,2445709.520833,29.6650,-93.4789,0037,-34.24,11.12,36.0000,288.0000
1984-01-10 01:00:00 UTC,2445709.541667,29.6650,-93.4789,0037,-32.68,9.37,34.0000,286.0000
1984-01-10 01:30:00 UTC,2445709.562500,29.6650,-93.4789,0037,-28.84,8.27,30.0000,286.0000
1984-01-10 02:00:00 UTC,2445709.583333,29.6650,-93.4789,0037,-25.95,7.44,27.0000,286.0000
1984-01-10 02:30:00 UTC,2445709.604167,29.6650,-93.4789,0037,-24.43,8.89,26.0000,290.0000
1984-01-10 03:00:00 UTC,2445709.625000,29.6650,-93.4789,0037,-26.28,12.26,29.0000,295.0000
1984-01-10 03:30:00 UTC,2445709.645833,29.6650,-93.4789,0037,-27.41,12.20,30.0000,294.0000
1984-01-10 04:00:00 UTC,2445709.666667,29.6650,-93.4789,0037,-26.31,9.58,28.0000,290.0000
1984-01-10 04:30:00 UTC,2445709.687500,29.6650,-93.4789,0037,-24.27,9.32,26.0000,291.0000
1984-01-10 05:00:00 UTC,2445709.708333,29.6650,-93.4789,0037,-23.34,8.96,25.0000,291.0000
1984-01-10 05:30:00 UTC,2445709.729167,29.6650,-93.4789,0037,-22.22,5.95,23.0000,285.0000
1984-01-10 06:00:00 UTC,2445709.750000,29.6650,-93.4789,0037,-17.61,3.74,18.0000,282.0000
1984-01-10 06:30:00 UTC,2445709.770833,29.6650,-93.4789,0037,-11.48,3.51,12.0000,287.0000
1984-01-10 07:00:00 UTC,2445709.791667,29.6650,-93.4789,0037,-8.34,3.37,9.0000,292.0000
1984-01-10 07:30:00 UTC,2445709.812500,29.6650,-93.4789,0037,-8.65,2.48,9.0000,286.0000
1984-01-10 08:00:00 UTC,2445709.833333,29.6650,-93.4789,0037,-9.82,1.91,10.0000,281.0000
1984-01-10 08:30:00 UTC,2445709.854167,29.6650,-93.4789,0037,-10.92,1.34,11.0000,277.0000
1984-01-10 09:00:00 UTC,2445709.875000,29.6650,-93.4789,0037,-9.93,1.22,10.0000,277.0000
1984-01-10 09:30:00 UTC,2445709.895833,29.6650,-93.4789,0037,-10.86,1.72,11.0000,279.0000
1984-01-10 10:00:00 UTC,2445709.916667,29.6650,-93.4789,0037,-12.72,2.70,13.0000,282.0000
1984-01-10 10:30:00 UTC,2445709.937500,29.6650,-93.4789,0037,-16.69,6.74,18.0000,292.0000
1984-01-10 11:00:00 UTC,2445709.958333,29.6650,-93.4789,0037,-19.51,12.19,23.0000,302.0000
1984-01-10 11:30:00 UTC,2445709.979167,29.6650,-93.4789,0037,-21.84,15.87,27.0000,306.0000
1984-01-10 12:00:00 UTC,2445710.000000,29.6650,-93.4789,0037,-25.11,14.50,29.0000,300.0000
1984-01-10 12:30:00 UTC,2445710.020833,29.6650,-93.4789,0037,-28.69,8.77,30.0000,287.0000
1984-01-10 13:00:00 UTC,2445710.041667,29.6650,-93.4789,0037,-29.45,5.72,30.0000,281.0000
1984-01-10 13:30:00 UTC,2445710.062500,29.6650,-93.4789,0037,-27.57,4.86,28.0000,280.0000
1984-01-10 14:00:00 UTC,2445710.083333,29.6650,-93.4789,0037,-24.69,3.91,25.0000,279.0000
1984-01-10 14:30:00 UTC,2445710.104167,29.6650,-93.4789,0037,-23.97,1.26,24.0000,273.0000
1984-01-10 15:00:00 UTC,2445710.125000,29.6650,-93.4789,0037,-23.91,-2.09,24.0000,265.0000
1984-01-10 15:30:00 UTC,2445710.145833,29.6650,-93.4789,0037,-24.86,-2.61,25.0000,264.0000
1984-01-10 16:00:00 UTC,2445710.166667,29.6650,-93.4789,0037,-24.98,-0.87,25.0000,268.0000
1984-01-10 16:30:00 UTC,2445710.187500,29.6650,-93.4789,0037,-26.00,0.45,26.0000,271.0000
1984-01-10 17:00:00 UTC,2445710.208333,29.6650,-93.4789,0037,-26.93,1.88,27.0000,274.0000
1984-01-10 17:30:00 UTC,2445710.229167,29.6650,-93.4789,0037,-25.61,4.51,26.0000,280.0000
1984-01-10 18:00:00 UTC,2445710.250000,29.6650,-93.4789,0037,-23.78,7.73,25.0000,288.0000
1984-01-10 18:30:00 UTC,2445710.270833,29.6650,-93.4789,0037,-18.87,9.21,21.0000,296.0000
1984-01-10 19:00:00 UTC,2445710.291667,29.6650,-93.4789,0037,-15.15,7.72,17.0000,297.0000
1984-01-10 19:30:00 UTC,2445710.312500,29.6650,-93.4789,0037,-12.69,5.92,14.0000,295.0000
1984-01-10 20:00:00 UTC,2445710.333333,29.6650,-93.4789,0037,-11.28,4.10,12.0000,290.0000
1984-01-10 20:30:00 UTC,2445710.354167,29.6650,-93.4789,0037,-11.78,2.29,12.0000,281.0000
1984-01-10 21:00:00 UTC,2445710.375000,29.6650,-93.4789,0037,-12.93,1.36,13.0000,276.0000
1984-01-10 21:30:00 UTC,2445710.395833,29.6650,-93.4789,0037,-12.61,3.14,13.0000,284.0000
1984-01-10 22:00:00 UTC,2445710.416667,29.6650,-93.4789,0037,-11.14,6.70,13.0000,301.0000
1984-01-10 22:30:00 UTC,2445710.437500,29.6650,-93.4789,0037,-9.51,8.87,13.0000,313.0000
1984-01-10 23:00:00 UTC,2445710.458333,29.6650,-93.4789,0037,-9.66,8.70,13.0000,312.0000
1984-01-10 23:30:00 UTC,2445710.479167,29.6650,-93.4789,0037,-9.33,7.55,12.0000,309.0000
1984-01-11 00:00:00 UTC,2445710.500000,29.6650,-93.4789,0037,-8.30,7.22,11.0000,311.0000
1984-01-11 00:30:00 UTC,2445710.520833,29.6650,-93.4789,0037,-6.99,5.66,9.0000,309.0000
1984-01-11 01:00:00 UTC,2445710.541667,29.6650,-93.4789,0037,-6.78,4.24,8.0000,302.0000
1984-01-11 01:30:00 UTC,2445710.562500,29.6650,-93.4789,0037,-6.24,3.18,7.0000,297.0000
1984-01-11 02:00:00 UTC,2445710.583333,29.6650,-93.4789,0037,-5.30,2.82,6.0000,298.0000
1984-01-11 02:30:00 UTC,2445710.604167,29.6650,-93.4789,0037,-3.72,3.35,5.0000,312.0000
1984-01-11 03:00:00 UTC,2445710.625000,29.6650,-93.4789,0037,-2.19,4.49,5.0000,334.0000
1984-01-11 03:30:00 UTC,2445710.645833,29.6650,-93.4789,0037,-0.26,2.99,3.0000,355.0000
1984-01-11 04:00:00 UTC,2445710.666667,29.6650,-93.4789,0037,1.36,2.67,3.0000,27.0000
1984-01-11 04:30:00 UTC,2445710.687500,29.6650,-93.4789,0037,2.40,1.81,3.0000,53.0000
1984-01-11 05:00:00 UTC,2445710.708333,29.6650,-93.4789,0037,2.78,1.12,3.0000,68.0000
1984-01-11 05:30:00 UTC,2445710.729167,29.6650,-93.4789,0037,2.92,0.67,3.0000,77.0000
1984-01-11 06:00:00 UTC,2445710.750000,29.6650,-93.4789,0037,2.93,0.62,3.0000,78.0000
1984-01-11 06:30:00 UTC,2445710.770833,29.6650,-93.4789,0037,3.56,1.82,4.0000,63.0000
1984-01-11 07:00:00 UTC,2445710.791667,29.6650,-93.4789,0037,3.11,2.52,4.0000,51.0000
1984-01-11 07:30:00 UTC,2445710.812500,29.6650,-93.4789,0037,4.05,2.94,5.0000,54.0000
1984-01-11 08:00:00 UTC,2445710.833333,29.6650,-93.4789,0037,3.56,1.82,4.0000,63.0000
1984-01-11 08:30:00 UTC,2445710.854167,29.6650,-93.4789,0037,2.96,0.47,3.0000,81.0000
1984-01-11 09:00:00 UTC,2445710.875000,29.6650,-93.4789,0037,1.80,-0.88,2.0000,116.0000
1984-01-11 09:30:00 UTC,2445710.895833,29.6650,-93.4789,0037,0.84,-0.54,1.0000,123.0000
1984-01-11 10:00:00 UTC,2445710.916667,29.6650,-93.4789,0037,0.90,0.44,1.0000,64.0000
1984-01-11 10:30:00 UTC,2445710.937500,29.6650,-93.4789,0037,0.33,0.95,1.0000,19.0000
1984-01-11 11:00:00 UTC,2445710.958333,29.6650,-93.4789,0037,0.14,2.00,2.0000,4.0000
1984-01-11 11:30:00 UTC,2445710.979167,29.6650,-93.4789,0037,0.42,2.97,3.0000,8.0000
1984-01-11 12:00:00 UTC,2445711.000000,29.6650,-93.4789,0037,0.83,2.88,3.0000,16.0000
1984-01-11 12:30:00 UTC,2445711.020833,29.6650,-93.4789,0037,0.67,2.92,3.0000,13.0000
1984-01-11 13:00:00 UTC,2445711.041667,29.6650,-93.4789,0037,0.26,2.99,3.0000,5.0000
1984-01-11 13:30:00 UTC,2445711.062500,29.6650,-93.4789,0037,0.00,3.00,3.0000,0.0000
1984-01-11 14:00:00 UTC,2445711.083333,29.6650,-93.4789,0037,-0.14,2.00,2.0000,356.0000
1984-01-11 14:30:00 UTC,2445711.104167,29.6650,-93.4789,0037,-0.52,1.93,2.0000,345.0000
1984-01-11 15:00:00 UTC,2445711.125000,29.6650,-93.4789,0037,-0.76,3.93,4.0000,349.0000
1984-01-11 15:30:00 UTC,2445711.145833,29.6650,-93.4789,0037,-0.35,4.99,5.0000,356.0000
1984-01-11 16:00:00 UTC,2445711.166667,29.6650,-93.4789,0037,0.21,3.99,4.0000,3.0000
1984-01-11 16:30:00 UTC,2445711.187500,29.6650,-93.4789,0037,1.04,3.86,4.0000,15.0000
1984-01-11 17:00:00 UTC,2445711.208333,29.6650,-93.4789,0037,1.87,4.64,5.0000,22.0000
1984-01-11 17:30:00 UTC,2445711.229167,29.6650,-93.4789,0037,1.69,3.63,4.0000,25.0000
1984-01-11 18:00:00 UTC,2445711.250000,29.6650,-93.4789,0037,1.88,3.53,4.0000,28.0000
1984-01-11 18:30:00 UTC,2445711.270833,29.6650,-93.4789,0037,2.72,4.19,5.0000,33.0000
1984-01-11 19:00:00 UTC,2445711.291667,29.6650,-93.4789,0037,4.17,4.32,6.0000,44.0000
1984-01-11 19:30:00 UTC,2445711.312500,29.6650,-93.4789,0037,4.98,0.44,5.0000,85.0000
1984-01-11 20:00:00 UTC,2445711.333333,29.6650,-93.4789,0037,5.56,-5.75,8.0000,136.0000
1984-01-11 20:30:00 UTC,2445711.354167,29.6650,-93.4789,0037,5.45,-10.69,12.0000,153.0000
1984-01-11 21:00:00 UTC,2445711.375000,29.6650,-93.4789,0037,3.80,-12.43,13.0000,163.0000
1984-01-11 21:30:00 UTC,2445711.395833,29.6650,-93.4789,0037,1.95,-13.86,14.0000,172.0000
1984-01-11 22:00:00 UTC,2445711.416667,29.6650,-93.4789,0037,0.24,-14.00,14.0000,179.0000
1984-01-11 22:30:00 UTC,2445711.437500,29.6650,-93.4789,0037,-1.46,-13.92,14.0000,186.0000
1984-01-11 23:00:00 UTC,2445711.458333,29.6650,-93.4789,0037,-2.60,-14.77,15.0000,190.0000
1984-01-11 23:30:00 UTC,2445711.479167,29.6650,-93.4789,0037,-1.39,-15.94,16.0000,185.0000
1984-01-12 00:00:00 UTC,2445711.500000,29.6650,-93.4789,0037,0.56,-15.99,16.0000,178.0000
1984-01-12 00:30:00 UTC,2445711.520833,29.6650,-93.4789,0037,0.84,-15.98,16.0000,177.0000
1984-01-12 01:00:00 UTC,2445711.541667,29.6650,-93.4789,0037,-0.89,-16.98,17.0000,183.0000
1984-01-12 01:30:00 UTC,2445711.562500,29.6650,-93.4789,0037,-3.60,-15.59,16.0000,193.0000
1984-01-12 02:00:00 UTC,2445711.583333,29.6650,-93.4789,0037,-5.99,-14.83,16.0000,202.0000
1984-01-12 02:30:00 UTC,2445711.604167,29.6650,-93.4789,0037,-6.76,-14.50,16.0000,205.0000
1984-01-12 03:00:00 UTC,2445711.625000,29.6650,-93.4789,0037,-7.01,-14.38,16.0000,206.0000
1984-01-12 03:30:00 UTC,2445711.645833,29.6650,-93.4789,0037,-7.72,-15.15,17.0000,207.0000
1984-01-12 04:00:00 UTC,2445711.666667,29.6650,-93.4789,0037,-8.17,-16.04,18.0000,207.0000
1984-01-12 04:30:00 UTC,2445711.687500,29.6650,-93.4789,0037,-8.63,-16.93,19.0000,207.0000
1984-01-12 05:00:00 UTC,2445711.708333,29.6650,-93.4789,0037,-9.70,-17.49,20.0000,209.0000
1984-01-12 05:30:00 UTC,2445711.729167,29.6650,-93.4789,0037,-10.30,-17.14,20.0000,211.0000
1984-01-12 06:00:00 UTC,2445711.750000,29.6650,-93.4789,0037,-10.35,-15.93,19.0000,213.0000
1984-01-12 06:30:00 UTC,2445711.770833,29.6650,-93.4789,0037,-9.75,-13.93,17.0000,215.0000
1984-01-12 07:00:00 UTC,2445711.791667,29.6650,-93.4789,0037,-9.27,-15.43,18.0000,211.0000
1984-01-12 07:30:00 UTC,2445711.812500,29.6650,-93.4789,0037,-8.03,-17.22,19.0000,205.0000
1984-01-12 08:00:00 UTC,2445711.833333,29.6650,-93.4789,0037,-9.53,-18.71,21.0000,207.0000
1984-01-12 08:30:00 UTC,2445711.854167,29.6650,-93.4789,0037,-11.44,-17.61,21.0000,213.0000
1984-01-12 09:00:00 UTC,2445711.875000,29.6650,-93.4789,0037,-12.59,-15.54,20.0000,219.0000
1984-01-12 09:30:00 UTC,2445711.895833,29.6650,-93.4789,0037,-13.64,-14.63,20.0000,223.0000
1984-01-12 10:00:00 UTC,2445711.916667,29.6650,-93.4789,0037,-14.14,-14.14,20.0000,225.0000
1984-01-12 10:30:00 UTC,2445711.937500,29.6650,-93.4789,0037,-14.63,-13.64,20.0000,227.0000
1984-01-12 11:00:00 UTC,2445711.958333,29.6650,-93.4789,0037,-14.55,-12.21,19.0000,230.0000
1984-01-12 11:30:00 UTC,2445711.979167,29.6650,-93.4789,0037,-15.26,-9.54,18.0000,238.0000
1984-01-12 12:00:00 UTC,2445712.000000,29.6650,-93.4789,0037,-14.26,-7.26,16.0000,243.0000
1984-01-12 12:30:00 UTC,2445712.020833,29.6650,-93.4789,0037,-13.12,-7.27,15.0000,241.0000
1984-01-12 13:00:00 UTC,2445712.041667,29.6650,-93.4789,0037,-13.48,-6.58,15.0000,244.0000
1984-01-12 13:30:00 UTC,2445712.062500,29.6650,-93.4789,0037,-13.58,-3.39,14.0000,256.0000
1984-01-12 14:00:00 UTC,2445712.083333,29.6650,-93.4789,0037,-13.95,-1.22,14.0000,265.0000
1984-01-12 14:30:00 UTC,2445712.104167,29.6650,-93.4789,0037,-12.00,0.21,12.0000,271.0000
1984-01-12 15:00:00 UTC,2445712.125000,29.6650,-93.4789,0037,-10.97,0.77,11.0000,274.0000
1984-01-12 15:30:00 UTC,2445712.145833,29.6650,-93.4789,0037,-9.99,0.35,10.0000,272.0000
1984-01-12 16:00:00 UTC,2445712.166667,29.6650,-93.4789,0037,-9.99,-0.35,10.0000,268.0000
1984-01-12 16:30:00 UTC,2445712.187500,29.6650,-93.4789,0037,-11.00,-0.19,11.0000,269.0000
1984-01-12 17:00:00 UTC,2445712.208333,29.6650,-93.4789,0037,-10.97,0.77,11.0000,274.0000
1984-01-12 17:30:00 UTC,2445712.229167,29.6650,-93.4789,0037,-10.89,1.53,11.0000,278.0000
1984-01-12 18:00:00 UTC,2445712.250000,29.6650,-93.4789,0037,-11.85,1.88,12.0000,279.0000
1984-01-12 18:30:00 UTC,2445712.270833,29.6650,-93.4789,0037,-12.67,2.92,13.0000,283.0000
1984-01-12 19:00:00 UTC,2445712.291667,29.6650,-93.4789,0037,-12.43,3.80,13.0000,287.0000
1984-01-12 19:30:00 UTC,2445712.312500,29.6650,-93.4789,0037,-10.34,3.76,11.0000,290.0000
1984-01-12 20:00:00 UTC,2445712.333333,29.6650,-93.4789,0037,-8.28,3.52,9.0000,293.0000
1984-01-12 20:30:00 UTC,2445712.354167,29.6650,-93.4789,0037,-6.34,2.96,7.0000,295.0000
1984-01-12 21:00:00 UTC,2445712.375000,29.6650,-93.4789,0037,-5.30,2.82,6.0000,298.0000
1984-01-12 21:30:00 UTC,2445712.395833,29.6650,-93.4789,0037,-4.64,1.87,5.0000,292.0000
1984-01-12 22:00:00 UTC,2445712.416667,29.6650,-93.4789,0037,-4.89,1.04,5.0000,282.0000
1984-01-12 22:30:00 UTC,2445712.437500,29.6650,-93.4789,0037,-4.94,0.78,5.0000,279.0000
1984-01-12 23:00:00 UTC,2445712.458333,29.6650,-93.4789,0037,-4.99,0.35,5.0000,274.0000
1984-01-12 23:30:00 UTC,2445712.479167,29.6650,-93.4789,0037,-4.99,0.26,5.0000,273.0000
1984-01-13 00:00:00 UTC,2445712.500000,29.6650,-93.4789,0037,-6.91,1.10,7.0000,279.0000
1984-01-13 00:30:00 UTC,2445712.520833,29.6650,-93.4789,0037,-7.79,1.80,8.0000,283.0000
1984-01-13 01:00:00 UTC,2445712.541667,29.6650,-93.4789,0037,-7.83,1.66,8.0000,282.0000
1984-01-13 01:30:00 UTC,2445712.562500,29.6650,-93.4789,0037,-9.82,1.91,10.0000,281.0000
1984-01-13 02:00:00 UTC,2445712.583333,29.6650,-93.4789,0037,-14.27,4.64,15.0000,288.0000
1984-01-13 02:30:00 UTC,2445712.604167,29.6650,-93.4789,0037,-16.44,7.32,18.0000,294.0000
1984-01-13 03:00:00 UTC,2445712.625000,29.6650,-93.4789,0037,-16.80,6.45,18.0000,291.0000
1984-01-13 03:30:00 UTC,2445712.645833,29.6650,-93.4789,0037,-18.17,5.56,19.0000,287.0000
1984-01-13 04:00:00 UTC,2445712.666667,29.6650,-93.4789,0037,-20.19,5.79,21.0000,286.0000
1984-01-13 04:30:00 UTC,2445712.687500,29.6650,-93.4789,0037,-19.23,5.51,20.0000,286.0000
1984-01-13 05:00:00 UTC,2445712.708333,29.6650,-93.4789,0037,-19.23,5.51,20.0000,286.0000
1984-01-13 05:30:00 UTC,2445712.729167,29.6650,-93.4789,0037,-19.32,5.18,20.0000,285.0000
1984-01-13 06:00:00 UTC,2445712.750000,29.6650,-93.4789,0037,-19.56,4.16,20.0000,282.0000
1984-01-13 06:30:00 UTC,2445712.770833,29.6650,-93.4789,0037,-19.49,4.50,20.0000,283.0000
1984-01-13 07:00:00 UTC,2445712.791667,29.6650,-93.4789,0037,-20.80,7.16,22.0000,289.0000